Year,Month,Day,Hour,Minute,Value (Times are PST for temperature in C)
2021,03,29,00,00,3.90
2021,03,29,00,01,4.00
2021,03,29,00,02,4.10
2021,03,29,00,03,4.10
2021,03,29,00,04,4.10
2021,03,29,00,05,4.10
2021,03,29,00,06,4.10
2021,03,29,00,07,4.00
2021,03,29,00,08,3.90
2021,03,29,00,09,3.80
2021,03,29,00,10,3.80
2021,03,29,00,11,3.70
2021,03,29,00,12,3.70
2021,03,29,00,13,3.70
2021,03,29,00,14,3.70
2021,03,29,00,15,3.70
2021,03,29,00,16,3.80
2021,03,29,00,17,3.80
2021,03,29,00,18,3.80
2021,03,29,00,19,3.80
2021,03,29,00,20,3.90
2021,03,29,00,21,3.90
2021,03,29,00,22,3.80
2021,03,29,00,23,3.80
2021,03,29,00,24,3.70
2021,03,29,00,25,3.70
2021,03,29,00,26,3.60
2021,03,29,00,27,3.50
2021,03,29,00,28,3.50
2021,03,29,00,29,3.60
2021,03,29,00,30,3.60
2021,03,29,00,31,3.50
2021,03,29,00,32,3.50
2021,03,29,00,33,3.50
2021,03,29,00,34,3.50
2021,03,29,00,35,3.40
2021,03,29,00,36,3.40
2021,03,29,00,37,3.40
2021,03,29,00,38,3.40
2021,03,29,00,39,3.50
2021,03,29,00,40,3.40
2021,03,29,00,41,3.40
2021,03,29,00,42,3.40
2021,03,29,00,43,3.40
2021,03,29,00,44,3.40
2021,03,29,00,45,3.40
2021,03,29,00,46,3.30
2021,03,29,00,47,3.30
2021,03,29,00,48,3.20
2021,03,29,00,49,3.20
2021,03,29,00,50,3.20
2021,03,29,00,51,3.10
2021,03,29,00,52,3.00
2021,03,29,00,53,2.90
2021,03,29,00,54,2.90
2021,03,29,00,55,2.80
2021,03,29,00,56,2.80
2021,03,29,00,57,2.80
2021,03,29,00,58,2.80
2021,03,29,00,59,2.80
2021,03,29,01,00,2.70
2021,03,29,01,01,2.80
2021,03,29,01,02,2.80
2021,03,29,01,03,2.80
2021,03,29,01,04,2.80
2021,03,29,01,05,2.80
2021,03,29,01,06,2.80
2021,03,29,01,07,2.80
2021,03,29,01,08,2.80
2021,03,29,01,09,2.80
2021,03,29,01,10,2.70
2021,03,29,01,11,2.70
2021,03,29,01,12,2.70
2021,03,29,01,13,2.70
2021,03,29,01,14,2.60
2021,03,29,01,15,2.60
2021,03,29,01,16,2.50
2021,03,29,01,17,2.40
2021,03,29,01,18,2.40
2021,03,29,01,19,2.50
2021,03,29,01,20,2.60
2021,03,29,01,21,2.70
2021,03,29,01,22,2.70
2021,03,29,01,23,2.70
2021,03,29,01,24,2.80
2021,03,29,01,25,2.80
2021,03,29,01,26,2.70
2021,03,29,01,27,2.70
2021,03,29,01,28,2.70
2021,03,29,01,29,2.70
2021,03,29,01,30,2.70
2021,03,29,01,31,2.70
2021,03,29,01,32,2.80
2021,03,29,01,33,2.80
2021,03,29,01,34,2.80
2021,03,29,01,35,2.90
2021,03,29,01,36,2.90
2021,03,29,01,37,2.90
2021,03,29,01,38,2.80
2021,03,29,01,39,2.80
2021,03,29,01,40,2.70
2021,03,29,01,41,2.60
2021,03,29,01,42,2.60
2021,03,29,01,43,2.60
2021,03,29,01,44,2.60
2021,03,29,01,45,2.60
2021,03,29,01,46,2.60
2021,03,29,01,47,2.60
2021,03,29,01,48,2.70
2021,03,29,01,49,2.70
2021,03,29,01,50,2.70
2021,03,29,01,51,2.70
2021,03,29,01,52,2.80
2021,03,29,01,53,2.80
2021,03,29,01,54,2.80
2021,03,29,01,55,2.80
2021,03,29,01,56,2.80
2021,03,29,01,57,2.80
2021,03,29,01,58,2.80
2021,03,29,01,59,2.80
2021,03,29,02,00,2.80
2021,03,29,02,01,2.80
2021,03,29,02,02,2.70
2021,03,29,02,03,2.70
2021,03,29,02,04,2.70
2021,03,29,02,05,2.70
2021,03,29,02,06,2.60
2021,03,29,02,07,2.60
2021,03,29,02,08,2.60
2021,03,29,02,09,2.60
2021,03,29,02,10,2.50
2021,03,29,02,11,2.60
2021,03,29,02,12,2.60
2021,03,29,02,13,2.50
2021,03,29,02,14,2.50
2021,03,29,02,15,2.40
2021,03,29,02,16,2.40
2021,03,29,02,17,2.50
2021,03,29,02,18,2.50
2021,03,29,02,19,2.50
2021,03,29,02,20,2.60
2021,03,29,02,21,2.50
2021,03,29,02,22,2.50
2021,03,29,02,23,2.50
2021,03,29,02,24,2.50
2021,03,29,02,25,2.50
2021,03,29,02,26,2.50
2021,03,29,02,27,2.50
2021,03,29,02,28,2.50
2021,03,29,02,29,2.50
2021,03,29,02,30,2.50
2021,03,29,02,31,2.60
2021,03,29,02,32,2.60
2021,03,29,02,33,2.60
2021,03,29,02,34,2.60
2021,03,29,02,35,2.60
2021,03,29,02,36,2.60
2021,03,29,02,37,2.60
2021,03,29,02,38,2.60
2021,03,29,02,39,2.60
2021,03,29,02,40,2.50
2021,03,29,02,41,2.50
2021,03,29,02,42,2.50
2021,03,29,02,43,2.50
2021,03,29,02,44,2.50
2021,03,29,02,45,2.50
2021,03,29,02,46,2.50
2021,03,29,02,47,2.50
2021,03,29,02,48,2.50
2021,03,29,02,49,2.50
2021,03,29,02,50,2.40
2021,03,29,02,51,2.40
2021,03,29,02,52,2.40
2021,03,29,02,53,2.40
2021,03,29,02,54,2.40
2021,03,29,02,55,2.40
2021,03,29,02,56,2.40
2021,03,29,02,57,2.50
2021,03,29,02,58,2.50
2021,03,29,02,59,2.40
2021,03,29,03,00,2.50
2021,03,29,03,01,2.50
2021,03,29,03,02,2.50
2021,03,29,03,03,2.50
2021,03,29,03,04,2.50
2021,03,29,03,05,2.50
2021,03,29,03,06,2.50
2021,03,29,03,07,2.40
2021,03,29,03,08,2.40
2021,03,29,03,09,2.40
2021,03,29,03,10,2.40
2021,03,29,03,11,2.30
2021,03,29,03,12,2.40
2021,03,29,03,13,2.40
2021,03,29,03,14,2.40
2021,03,29,03,15,2.40
2021,03,29,03,16,2.40
2021,03,29,03,17,2.30
2021,03,29,03,18,2.40
2021,03,29,03,19,2.30
2021,03,29,03,20,2.40
2021,03,29,03,21,2.40
2021,03,29,03,22,2.30
2021,03,29,03,23,2.30
2021,03,29,03,24,2.30
2021,03,29,03,25,2.30
2021,03,29,03,26,2.30
2021,03,29,03,27,2.30
2021,03,29,03,28,2.30
2021,03,29,03,29,2.30
2021,03,29,03,30,2.30
2021,03,29,03,31,2.40
2021,03,29,03,32,2.40
2021,03,29,03,33,2.50
2021,03,29,03,34,2.40
2021,03,29,03,35,2.40
2021,03,29,03,36,2.50
2021,03,29,03,37,2.60
2021,03,29,03,38,2.60
2021,03,29,03,39,2.60
2021,03,29,03,40,2.60
2021,03,29,03,41,2.60
2021,03,29,03,42,2.60
2021,03,29,03,43,2.60
2021,03,29,03,44,2.60
2021,03,29,03,45,2.60
2021,03,29,03,46,2.60
2021,03,29,03,47,2.60
2021,03,29,03,48,2.60
2021,03,29,03,49,2.60
2021,03,29,03,50,2.60
2021,03,29,03,51,2.70
2021,03,29,03,52,2.70
2021,03,29,03,53,2.70
2021,03,29,03,54,2.70
2021,03,29,03,55,2.70
2021,03,29,03,56,2.70
2021,03,29,03,57,2.70
2021,03,29,03,58,2.70
2021,03,29,03,59,2.70
2021,03,29,04,00,2.70
2021,03,29,04,01,2.70
2021,03,29,04,02,2.70
2021,03,29,04,03,2.70
2021,03,29,04,04,2.70
2021,03,29,04,05,2.70
2021,03,29,04,06,2.70
2021,03,29,04,07,2.70
2021,03,29,04,08,2.70
2021,03,29,04,09,2.70
2021,03,29,04,10,2.60
2021,03,29,04,11,2.60
2021,03,29,04,12,2.60
2021,03,29,04,13,2.70
2021,03,29,04,14,2.70
2021,03,29,04,15,2.70
2021,03,29,04,16,2.70
2021,03,29,04,17,2.70
2021,03,29,04,18,2.60
2021,03,29,04,19,2.60
2021,03,29,04,20,2.70
2021,03,29,04,21,2.60
2021,03,29,04,22,2.70
2021,03,29,04,23,2.70
2021,03,29,04,24,2.70
2021,03,29,04,25,2.70
2021,03,29,04,26,2.70
2021,03,29,04,27,2.70
2021,03,29,04,28,2.60
2021,03,29,04,29,2.60
2021,03,29,04,30,2.60
2021,03,29,04,31,2.60
2021,03,29,04,32,2.60
2021,03,29,04,33,2.60
2021,03,29,04,34,2.50
2021,03,29,04,35,2.50
2021,03,29,04,36,2.60
2021,03,29,04,37,2.60
2021,03,29,04,38,2.60
2021,03,29,04,39,2.60
2021,03,29,04,40,2.60
2021,03,29,04,41,2.70
2021,03,29,04,42,2.70
2021,03,29,04,43,2.70
2021,03,29,04,44,2.70
2021,03,29,04,45,2.80
2021,03,29,04,46,2.80
2021,03,29,04,47,2.80
2021,03,29,04,48,2.80
2021,03,29,04,49,2.90
2021,03,29,04,50,2.90
2021,03,29,04,51,3.00
2021,03,29,04,52,3.00
2021,03,29,04,53,3.00
2021,03,29,04,54,3.00
2021,03,29,04,55,3.00
2021,03,29,04,56,3.00
2021,03,29,04,57,3.00
2021,03,29,04,58,3.00
2021,03,29,04,59,3.00
2021,03,29,05,00,3.00
2021,03,29,05,01,3.00
2021,03,29,05,02,3.00
2021,03,29,05,03,2.90
2021,03,29,05,04,2.90
2021,03,29,05,05,2.80
2021,03,29,05,06,2.80
2021,03,29,05,07,2.80
2021,03,29,05,08,2.90
2021,03,29,05,09,2.90
2021,03,29,05,10,2.90
2021,03,29,05,11,2.80
2021,03,29,05,12,2.80
2021,03,29,05,13,2.80
2021,03,29,05,14,2.70
2021,03,29,05,15,2.70
2021,03,29,05,16,2.70
2021,03,29,05,17,2.70
2021,03,29,05,18,2.70
2021,03,29,05,19,2.70
2021,03,29,05,20,2.80
2021,03,29,05,21,2.80
2021,03,29,05,22,2.80
2021,03,29,05,23,2.80
2021,03,29,05,24,2.70
2021,03,29,05,25,2.80
2021,03,29,05,26,2.70
2021,03,29,05,27,2.80
2021,03,29,05,28,2.80
2021,03,29,05,29,2.90
2021,03,29,05,30,2.90
2021,03,29,05,31,2.90
2021,03,29,05,32,2.90
2021,03,29,05,33,2.90
2021,03,29,05,34,2.80
2021,03,29,05,35,2.80
2021,03,29,05,36,2.80
2021,03,29,05,37,2.70
2021,03,29,05,38,2.70
2021,03,29,05,39,2.70
2021,03,29,05,40,2.80
2021,03,29,05,41,2.80
2021,03,29,05,42,2.80
2021,03,29,05,43,2.80
2021,03,29,05,44,2.80
2021,03,29,05,45,2.90
2021,03,29,05,46,3.00
2021,03,29,05,47,3.00
2021,03,29,05,48,3.10
2021,03,29,05,49,3.10
2021,03,29,05,50,3.10
2021,03,29,05,51,3.10
2021,03,29,05,52,3.10
2021,03,29,05,53,3.00
2021,03,29,05,54,3.00
2021,03,29,05,55,3.00
2021,03,29,05,56,3.00
2021,03,29,05,57,2.90
2021,03,29,05,58,2.90
2021,03,29,05,59,2.80
2021,03,29,06,00,2.80
2021,03,29,06,01,2.80
2021,03,29,06,02,2.90
2021,03,29,06,03,2.90
2021,03,29,06,04,2.90
2021,03,29,06,05,2.90
2021,03,29,06,06,2.90
2021,03,29,06,07,2.90
2021,03,29,06,08,2.90
2021,03,29,06,09,2.90
2021,03,29,06,10,2.90
2021,03,29,06,11,3.00
2021,03,29,06,12,3.00
2021,03,29,06,13,3.00
2021,03,29,06,14,3.00
2021,03,29,06,15,3.00
2021,03,29,06,16,3.00
2021,03,29,06,17,3.00
2021,03,29,06,18,3.00
2021,03,29,06,19,3.10
2021,03,29,06,20,3.10
2021,03,29,06,21,3.10
2021,03,29,06,22,3.10
2021,03,29,06,23,3.10
2021,03,29,06,24,3.10
2021,03,29,06,25,3.10
2021,03,29,06,26,3.00
2021,03,29,06,27,3.00
2021,03,29,06,28,3.00
2021,03,29,06,29,2.90
2021,03,29,06,30,2.90
2021,03,29,06,31,2.90
2021,03,29,06,32,2.90
2021,03,29,06,33,2.90
2021,03,29,06,34,2.80
2021,03,29,06,35,2.80
2021,03,29,06,36,2.80
2021,03,29,06,37,2.80
2021,03,29,06,38,2.80
2021,03,29,06,39,2.80
2021,03,29,06,40,2.70
2021,03,29,06,41,2.70
2021,03,29,06,42,2.70
2021,03,29,06,43,2.70
2021,03,29,06,44,2.60
2021,03,29,06,45,2.60
2021,03,29,06,46,2.50
2021,03,29,06,47,2.50
2021,03,29,06,48,2.50
2021,03,29,06,49,2.60
2021,03,29,06,50,2.60
2021,03,29,06,51,2.60
2021,03,29,06,52,2.50
2021,03,29,06,53,2.50
2021,03,29,06,54,2.50
2021,03,29,06,55,2.40
2021,03,29,06,56,2.40
2021,03,29,06,57,2.40
2021,03,29,06,58,2.40
2021,03,29,06,59,2.40
2021,03,29,07,00,2.40
2021,03,29,07,01,2.40
2021,03,29,07,02,2.40
2021,03,29,07,03,2.40
2021,03,29,07,04,2.40
2021,03,29,07,05,2.40
2021,03,29,07,06,2.40
2021,03,29,07,07,2.40
2021,03,29,07,08,2.40
2021,03,29,07,09,2.40
2021,03,29,07,10,2.40
2021,03,29,07,11,2.40
2021,03,29,07,12,2.40
2021,03,29,07,13,2.40
2021,03,29,07,14,2.40
2021,03,29,07,15,2.40
2021,03,29,07,16,2.40
2021,03,29,07,17,2.40
2021,03,29,07,18,2.40
2021,03,29,07,19,2.40
2021,03,29,07,20,2.40
2021,03,29,07,21,2.40
2021,03,29,07,22,2.40
2021,03,29,07,23,2.40
2021,03,29,07,24,2.40
2021,03,29,07,25,2.40
2021,03,29,07,26,2.50
2021,03,29,07,27,2.50
2021,03,29,07,28,2.50
2021,03,29,07,29,2.50
2021,03,29,07,30,2.60
2021,03,29,07,31,2.60
2021,03,29,07,32,2.60
2021,03,29,07,33,2.60
2021,03,29,07,34,2.60
2021,03,29,07,35,2.70
2021,03,29,07,36,2.70
2021,03,29,07,37,2.70
2021,03,29,07,38,2.70
2021,03,29,07,39,2.80
2021,03,29,07,40,2.80
2021,03,29,07,41,2.80
2021,03,29,07,42,2.80
2021,03,29,07,43,2.80
2021,03,29,07,44,2.90
2021,03,29,07,45,2.90
2021,03,29,07,46,2.90
2021,03,29,07,47,2.90
2021,03,29,07,48,2.90
2021,03,29,07,49,2.90
2021,03,29,07,50,2.90
2021,03,29,07,51,2.90
2021,03,29,07,52,2.90
2021,03,29,07,53,2.90
2021,03,29,07,54,3.00
2021,03,29,07,55,3.00
2021,03,29,07,56,3.10
2021,03,29,07,57,3.00
2021,03,29,07,58,3.00
2021,03,29,07,59,3.00
2021,03,29,08,00,3.10
2021,03,29,08,01,3.10
2021,03,29,08,02,3.10
2021,03,29,08,03,3.10
2021,03,29,08,04,3.10
2021,03,29,08,05,3.20
2021,03,29,08,06,3.20
2021,03,29,08,07,3.20
2021,03,29,08,08,3.30
2021,03,29,08,09,3.30
2021,03,29,08,10,3.30
2021,03,29,08,11,3.40
2021,03,29,08,12,3.40
2021,03,29,08,13,3.50
2021,03,29,08,14,3.50
2021,03,29,08,15,3.60
2021,03,29,08,16,3.60
2021,03,29,08,17,3.60
2021,03,29,08,18,3.60
2021,03,29,08,19,3.60
2021,03,29,08,20,3.60
2021,03,29,08,21,3.50
2021,03,29,08,22,3.50
2021,03,29,08,23,3.50
2021,03,29,08,24,3.40
2021,03,29,08,25,3.50
2021,03,29,08,26,3.60
2021,03,29,08,27,3.60
2021,03,29,08,28,3.60
2021,03,29,08,29,3.70
2021,03,29,08,30,3.70
2021,03,29,08,31,3.70
2021,03,29,08,32,3.70
2021,03,29,08,33,3.70
2021,03,29,08,34,3.80
2021,03,29,08,35,3.80
2021,03,29,08,36,3.80
2021,03,29,08,37,3.80
2021,03,29,08,38,3.80
2021,03,29,08,39,3.90
2021,03,29,08,40,3.90
2021,03,29,08,41,3.90
2021,03,29,08,42,4.00
2021,03,29,08,43,4.00
2021,03,29,08,44,4.10
2021,03,29,08,45,4.10
2021,03,29,08,46,4.20
2021,03,29,08,47,4.20
2021,03,29,08,48,4.20
2021,03,29,08,49,4.20
2021,03,29,08,50,4.20
2021,03,29,08,51,4.20
2021,03,29,08,52,4.20
2021,03,29,08,53,4.20
2021,03,29,08,54,4.20
2021,03,29,08,55,4.20
2021,03,29,08,56,4.20
2021,03,29,08,57,4.20
2021,03,29,08,58,4.20
2021,03,29,08,59,4.20
2021,03,29,09,00,4.20
2021,03,29,09,01,4.20
2021,03,29,09,02,4.20
2021,03,29,09,03,4.30
2021,03,29,09,04,4.40
2021,03,29,09,05,4.40
2021,03,29,09,06,4.50
2021,03,29,09,07,4.60
2021,03,29,09,08,4.60
2021,03,29,09,09,4.60
2021,03,29,09,10,4.60
2021,03,29,09,11,4.70
2021,03,29,09,12,4.70
2021,03,29,09,13,4.70
2021,03,29,09,14,4.80
2021,03,29,09,15,4.80
2021,03,29,09,16,4.80
2021,03,29,09,17,4.80
2021,03,29,09,18,4.90
2021,03,29,09,19,4.90
2021,03,29,09,20,5.00
2021,03,29,09,21,5.00
2021,03,29,09,22,5.10
2021,03,29,09,23,5.10
2021,03,29,09,24,5.20
2021,03,29,09,25,5.20
2021,03,29,09,26,5.30
2021,03,29,09,27,5.30
2021,03,29,09,28,5.40
2021,03,29,09,29,5.40
2021,03,29,09,30,5.40
2021,03,29,09,31,5.40
2021,03,29,09,32,5.40
2021,03,29,09,33,5.40
2021,03,29,09,34,5.50
2021,03,29,09,35,5.50
2021,03,29,09,36,5.50
2021,03,29,09,37,5.50
2021,03,29,09,38,5.50
2021,03,29,09,39,5.60
2021,03,29,09,40,5.60
2021,03,29,09,41,5.60
2021,03,29,09,42,5.60
2021,03,29,09,43,5.70
2021,03,29,09,44,5.70
2021,03,29,09,45,5.70
2021,03,29,09,46,5.80
2021,03,29,09,47,5.80
2021,03,29,09,48,5.80
2021,03,29,09,49,5.90
2021,03,29,09,50,5.90
2021,03,29,09,51,5.90
2021,03,29,09,52,6.00
2021,03,29,09,53,6.00
2021,03,29,09,54,6.00
2021,03,29,09,55,6.00
2021,03,29,09,56,6.00
2021,03,29,09,57,6.00
2021,03,29,09,58,6.00
2021,03,29,09,59,6.00
2021,03,29,10,00,6.00
2021,03,29,10,01,6.00
2021,03,29,10,02,6.10
2021,03,29,10,03,6.10
2021,03,29,10,04,6.10
2021,03,29,10,05,6.10
2021,03,29,10,06,6.10
2021,03,29,10,07,6.10
2021,03,29,10,08,6.10
2021,03,29,10,09,6.10
2021,03,29,10,10,6.10
2021,03,29,10,11,6.10
2021,03,29,10,12,6.10
2021,03,29,10,13,6.10
2021,03,29,10,14,6.10
2021,03,29,10,15,6.20
2021,03,29,10,16,6.20
2021,03,29,10,17,6.30
2021,03,29,10,18,6.30
2021,03,29,10,19,6.30
2021,03,29,10,20,6.30
2021,03,29,10,21,6.40
2021,03,29,10,22,6.40
2021,03,29,10,23,6.40
2021,03,29,10,24,6.40
2021,03,29,10,25,6.40
2021,03,29,10,26,6.40
2021,03,29,10,27,6.50
2021,03,29,10,28,6.50
2021,03,29,10,29,6.50
2021,03,29,10,30,6.40
2021,03,29,10,31,6.40
2021,03,29,10,32,6.40
2021,03,29,10,33,6.40
2021,03,29,10,34,6.50
2021,03,29,10,35,6.60
2021,03,29,10,36,6.60
2021,03,29,10,37,6.60
2021,03,29,10,38,6.60
2021,03,29,10,39,6.60
2021,03,29,10,40,6.70
2021,03,29,10,41,6.70
2021,03,29,10,42,6.80
2021,03,29,10,43,6.90
2021,03,29,10,44,6.90
2021,03,29,10,45,7.00
2021,03,29,10,46,7.10
2021,03,29,10,47,7.10
2021,03,29,10,48,7.20
2021,03,29,10,49,7.20
2021,03,29,10,50,7.30
2021,03,29,10,51,7.30
2021,03,29,10,52,7.30
2021,03,29,10,53,7.40
2021,03,29,10,54,7.40
2021,03,29,10,55,7.50
2021,03,29,10,56,7.50
2021,03,29,10,57,7.50
2021,03,29,10,58,7.50
2021,03,29,10,59,7.50
2021,03,29,11,00,7.40
2021,03,29,11,01,7.40
2021,03,29,11,02,7.40
2021,03,29,11,03,7.40
2021,03,29,11,04,7.40
2021,03,29,11,05,7.40
2021,03,29,11,06,7.30
2021,03,29,11,07,7.30
2021,03,29,11,08,7.30
2021,03,29,11,09,7.20
2021,03,29,11,10,7.20
2021,03,29,11,11,7.20
2021,03,29,11,12,7.20
2021,03,29,11,13,7.20
2021,03,29,11,14,7.20
2021,03,29,11,15,7.20
2021,03,29,11,16,7.30
2021,03,29,11,17,7.30
2021,03,29,11,18,7.30
2021,03,29,11,19,7.30
2021,03,29,11,20,7.30
2021,03,29,11,21,7.30
2021,03,29,11,22,7.40
2021,03,29,11,23,7.40
2021,03,29,11,24,7.50
2021,03,29,11,25,7.60
2021,03,29,11,26,7.70
2021,03,29,11,27,7.80
2021,03,29,11,28,7.90
2021,03,29,11,29,7.90
2021,03,29,11,30,8.10
2021,03,29,11,31,8.20
2021,03,29,11,32,8.30
2021,03,29,11,33,8.40
2021,03,29,11,34,8.40
2021,03,29,11,35,8.40
2021,03,29,11,36,8.50
2021,03,29,11,37,8.60
2021,03,29,11,38,8.60
2021,03,29,11,39,8.70
2021,03,29,11,40,8.70
2021,03,29,11,41,8.70
2021,03,29,11,42,8.70
2021,03,29,11,43,8.70
2021,03,29,11,44,8.60
2021,03,29,11,45,8.60
2021,03,29,11,46,8.60
2021,03,29,11,47,8.60
2021,03,29,11,48,8.70
2021,03,29,11,49,8.70
2021,03,29,11,50,8.70
2021,03,29,11,51,8.80
2021,03,29,11,52,8.80
2021,03,29,11,53,8.90
2021,03,29,11,54,9.00
2021,03,29,11,55,9.00
2021,03,29,11,56,8.90
2021,03,29,11,57,8.90
2021,03,29,11,58,8.80
2021,03,29,11,59,8.70
2021,03,29,12,00,8.70
2021,03,29,12,01,8.60
2021,03,29,12,02,8.70
2021,03,29,12,03,8.70
2021,03,29,12,04,8.70
2021,03,29,12,05,8.80
2021,03,29,12,06,8.80
2021,03,29,12,07,8.80
2021,03,29,12,08,8.90
2021,03,29,12,09,9.00
2021,03,29,12,10,9.10
2021,03,29,12,11,9.10
2021,03,29,12,12,9.20
2021,03,29,12,13,9.20
2021,03,29,12,14,9.20
2021,03,29,12,15,9.10
2021,03,29,12,16,9.10
2021,03,29,12,17,8.90
2021,03,29,12,18,8.90
2021,03,29,12,19,8.80
2021,03,29,12,20,8.80
2021,03,29,12,21,8.80
2021,03,29,12,22,8.90
2021,03,29,12,23,8.90
2021,03,29,12,24,8.90
2021,03,29,12,25,8.90
2021,03,29,12,26,8.90
2021,03,29,12,27,8.90
2021,03,29,12,28,9.00
2021,03,29,12,29,9.00
2021,03,29,12,30,9.10
2021,03,29,12,31,9.10
2021,03,29,12,32,9.00
2021,03,29,12,33,9.00
2021,03,29,12,34,9.00
2021,03,29,12,35,9.10
2021,03,29,12,36,9.10
2021,03,29,12,37,9.10
2021,03,29,12,38,9.20
2021,03,29,12,39,9.20
2021,03,29,12,40,9.20
2021,03,29,12,41,9.20
2021,03,29,12,42,9.20
2021,03,29,12,43,9.20
2021,03,29,12,44,9.10
2021,03,29,12,45,9.00
2021,03,29,12,46,9.00
2021,03,29,12,47,9.00
2021,03,29,12,48,9.00
2021,03,29,12,49,9.10
2021,03,29,12,50,9.10
2021,03,29,12,51,9.10
2021,03,29,12,52,9.10
2021,03,29,12,53,9.00
2021,03,29,12,54,9.00
2021,03,29,12,55,9.00
2021,03,29,12,56,9.00
2021,03,29,12,57,9.00
2021,03,29,12,58,9.10
2021,03,29,12,59,9.10
2021,03,29,13,00,9.20
2021,03,29,13,01,9.20
2021,03,29,13,02,9.20
2021,03,29,13,03,9.20
2021,03,29,13,04,9.20
2021,03,29,13,05,9.20
2021,03,29,13,06,9.10
2021,03,29,13,07,9.10
2021,03,29,13,08,9.10
2021,03,29,13,09,9.10
2021,03,29,13,10,9.30
2021,03,29,13,11,9.30
2021,03,29,13,12,9.40
2021,03,29,13,13,9.40
2021,03,29,13,14,9.50
2021,03,29,13,15,9.60
2021,03,29,13,16,9.60
2021,03,29,13,17,9.70
2021,03,29,13,18,9.80
2021,03,29,13,19,9.80
2021,03,29,13,20,9.90
2021,03,29,13,21,9.90
2021,03,29,13,22,9.90
2021,03,29,13,23,9.90
2021,03,29,13,24,9.80
2021,03,29,13,25,9.80
2021,03,29,13,26,9.80
2021,03,29,13,27,9.70
2021,03,29,13,28,9.70
2021,03,29,13,29,9.60
2021,03,29,13,30,9.60
2021,03,29,13,31,9.50
2021,03,29,13,32,9.40
2021,03,29,13,33,9.30
2021,03,29,13,34,9.30
2021,03,29,13,35,9.30
2021,03,29,13,36,9.20
2021,03,29,13,37,9.20
2021,03,29,13,38,9.10
2021,03,29,13,39,9.10
2021,03,29,13,40,9.10
2021,03,29,13,41,9.20
2021,03,29,13,42,9.20
2021,03,29,13,43,9.20
2021,03,29,13,44,9.30
2021,03,29,13,45,9.20
2021,03,29,13,46,9.20
2021,03,29,13,47,9.30
2021,03,29,13,48,9.30
2021,03,29,13,49,9.30
2021,03,29,13,50,9.30
2021,03,29,13,51,9.30
2021,03,29,13,52,9.30
2021,03,29,13,53,9.30
2021,03,29,13,54,9.30
2021,03,29,13,55,9.40
2021,03,29,13,56,9.50
2021,03,29,13,57,9.60
2021,03,29,13,58,9.70
2021,03,29,13,59,9.80
2021,03,29,14,00,9.80
2021,03,29,14,01,9.90
2021,03,29,14,02,10.00
2021,03,29,14,03,10.00
2021,03,29,14,04,9.90
2021,03,29,14,05,9.90
2021,03,29,14,06,9.80
2021,03,29,14,07,9.80
2021,03,29,14,08,9.90
2021,03,29,14,09,9.90
2021,03,29,14,10,9.90
2021,03,29,14,11,9.90
2021,03,29,14,12,9.90
2021,03,29,14,13,9.90
2021,03,29,14,14,9.80
2021,03,29,14,15,9.80
2021,03,29,14,16,9.80
2021,03,29,14,17,9.80
2021,03,29,14,18,9.90
2021,03,29,14,19,9.90
2021,03,29,14,20,10.00
2021,03,29,14,21,10.00
2021,03,29,14,22,10.10
2021,03,29,14,23,10.10
2021,03,29,14,24,10.10
2021,03,29,14,25,10.10
2021,03,29,14,26,10.10
2021,03,29,14,27,10.10
2021,03,29,14,28,10.10
2021,03,29,14,29,10.00
2021,03,29,14,30,10.00
2021,03,29,14,31,10.10
2021,03,29,14,32,10.00
2021,03,29,14,33,10.10
2021,03,29,14,34,10.10
2021,03,29,14,35,10.20
2021,03,29,14,36,10.20
2021,03,29,14,37,10.30
2021,03,29,14,38,10.40
2021,03,29,14,39,10.40
2021,03,29,14,40,10.40
2021,03,29,14,41,10.40
2021,03,29,14,42,10.50
2021,03,29,14,43,10.60
2021,03,29,14,44,10.60
2021,03,29,14,45,10.50
2021,03,29,14,46,10.50
2021,03,29,14,47,10.40
2021,03,29,14,48,10.40
2021,03,29,14,49,10.30
2021,03,29,14,50,10.30
2021,03,29,14,51,10.30
2021,03,29,14,52,10.20
2021,03,29,14,53,10.20
2021,03,29,14,54,10.20
2021,03,29,14,55,10.10
2021,03,29,14,56,10.10
2021,03,29,14,57,10.00
2021,03,29,14,58,10.10
2021,03,29,14,59,10.10
2021,03,29,15,00,10.20
2021,03,29,15,01,10.20
2021,03,29,15,02,10.20
2021,03,29,15,03,10.20
2021,03,29,15,04,10.20
2021,03,29,15,05,10.20
2021,03,29,15,06,10.30
2021,03,29,15,07,10.40
2021,03,29,15,08,10.40
2021,03,29,15,09,10.40
2021,03,29,15,10,10.40
2021,03,29,15,11,10.40
2021,03,29,15,12,10.40
2021,03,29,15,13,10.40
2021,03,29,15,14,10.40
2021,03,29,15,15,10.30
2021,03,29,15,16,10.20
2021,03,29,15,17,10.10
2021,03,29,15,18,10.00
2021,03,29,15,19,9.90
2021,03,29,15,20,9.80
2021,03,29,15,21,9.70
2021,03,29,15,22,9.60
2021,03,29,15,23,9.50
2021,03,29,15,24,9.40
2021,03,29,15,25,9.20
2021,03,29,15,26,9.20
2021,03,29,15,27,9.10
2021,03,29,15,28,9.10
2021,03,29,15,29,9.00
2021,03,29,15,30,9.00
2021,03,29,15,31,8.90
2021,03,29,15,32,8.90
2021,03,29,15,33,8.90
2021,03,29,15,34,8.80
2021,03,29,15,35,8.80
2021,03,29,15,36,8.70
2021,03,29,15,37,8.70
2021,03,29,15,38,8.70
2021,03,29,15,39,8.70
2021,03,29,15,40,8.60
2021,03,29,15,41,8.60
2021,03,29,15,42,8.60
2021,03,29,15,43,8.50
2021,03,29,15,44,8.40
2021,03,29,15,45,8.40
2021,03,29,15,46,8.40
2021,03,29,15,47,8.30
2021,03,29,15,48,8.30
2021,03,29,15,49,8.30
2021,03,29,15,50,8.30
2021,03,29,15,51,8.30
2021,03,29,15,52,8.30
2021,03,29,15,53,8.30
2021,03,29,15,54,8.30
2021,03,29,15,55,8.30
2021,03,29,15,56,8.30
2021,03,29,15,57,8.30
2021,03,29,15,58,8.30
2021,03,29,15,59,8.30
2021,03,29,16,00,8.30
2021,03,29,16,01,8.30
2021,03,29,16,02,8.30
2021,03,29,16,03,8.20
2021,03,29,16,04,8.20
2021,03,29,16,05,8.20
2021,03,29,16,06,8.20
2021,03,29,16,07,8.10
2021,03,29,16,08,8.10
2021,03,29,16,09,8.10
2021,03,29,16,10,8.10
2021,03,29,16,11,8.10
2021,03,29,16,12,8.10
2021,03,29,16,13,8.10
2021,03,29,16,14,8.20
2021,03,29,16,15,8.20
2021,03,29,16,16,8.20
2021,03,29,16,17,8.20
2021,03,29,16,18,8.20
2021,03,29,16,19,8.20
2021,03,29,16,20,8.30
2021,03,29,16,21,8.30
2021,03,29,16,22,8.30
2021,03,29,16,23,8.40
2021,03,29,16,24,8.40
2021,03,29,16,25,8.40
2021,03,29,16,26,8.50
2021,03,29,16,27,8.50
2021,03,29,16,28,8.50
2021,03,29,16,29,8.60
2021,03,29,16,30,8.50
2021,03,29,16,31,8.50
2021,03,29,16,32,8.50
2021,03,29,16,33,8.60
2021,03,29,16,34,8.60
2021,03,29,16,35,8.60
2021,03,29,16,36,8.70
2021,03,29,16,37,8.70
2021,03,29,16,38,8.80
2021,03,29,16,39,8.70
2021,03,29,16,40,8.70
2021,03,29,16,41,8.70
2021,03,29,16,42,8.70
2021,03,29,16,43,8.70
2021,03,29,16,44,8.60
2021,03,29,16,45,8.50
2021,03,29,16,46,8.50
2021,03,29,16,47,8.50
2021,03,29,16,48,8.50
2021,03,29,16,49,8.50
2021,03,29,16,50,8.40
2021,03,29,16,51,8.50
2021,03,29,16,52,8.50
2021,03,29,16,53,8.50
2021,03,29,16,54,8.50
2021,03,29,16,55,8.50
2021,03,29,16,56,8.50
2021,03,29,16,57,8.50
2021,03,29,16,58,8.50
2021,03,29,16,59,8.40
2021,03,29,17,00,8.40
2021,03,29,17,01,8.40
2021,03,29,17,02,8.40
2021,03,29,17,03,8.40
2021,03,29,17,04,8.40
2021,03,29,17,05,8.40
2021,03,29,17,06,8.40
2021,03,29,17,07,8.40
2021,03,29,17,08,8.40
2021,03,29,17,09,8.30
2021,03,29,17,10,8.40
2021,03,29,17,11,8.40
2021,03,29,17,12,8.40
2021,03,29,17,13,8.40
2021,03,29,17,14,8.60
2021,03,29,17,15,8.60
2021,03,29,17,16,8.70
2021,03,29,17,17,8.80
2021,03,29,17,18,8.80
2021,03,29,17,19,8.90
2021,03,29,17,20,8.90
2021,03,29,17,21,9.00
2021,03,29,17,22,9.00
2021,03,29,17,23,9.10
2021,03,29,17,24,9.10
2021,03,29,17,25,9.10
2021,03,29,17,26,9.10
2021,03,29,17,27,9.20
2021,03,29,17,28,9.20
2021,03,29,17,29,9.30
2021,03,29,17,30,9.30
2021,03,29,17,31,9.30
2021,03,29,17,32,9.40
2021,03,29,17,33,9.40
2021,03,29,17,34,9.50
2021,03,29,17,35,9.50
2021,03,29,17,36,9.50
2021,03,29,17,37,9.50
2021,03,29,17,38,9.50
2021,03,29,17,39,9.40
2021,03,29,17,40,9.40
2021,03,29,17,41,9.40
2021,03,29,17,42,9.40
2021,03,29,17,43,9.40
2021,03,29,17,44,9.40
2021,03,29,17,45,9.40
2021,03,29,17,46,9.40
2021,03,29,17,47,9.40
2021,03,29,17,48,9.40
2021,03,29,17,49,9.40
2021,03,29,17,50,9.50
2021,03,29,17,51,9.40
2021,03,29,17,52,9.40
2021,03,29,17,53,9.40
2021,03,29,17,54,9.40
2021,03,29,17,55,9.40
2021,03,29,17,56,9.40
2021,03,29,17,57,9.40
2021,03,29,17,58,9.40
2021,03,29,17,59,9.50
2021,03,29,18,00,9.50
2021,03,29,18,01,9.50
2021,03,29,18,02,9.50
2021,03,29,18,03,9.50